STRIX-2 (62406 NORAD) Tracking and Keplerian Element Data

This shows tracking and keplerian element data for the satellite.

Feedback or suggestion? Click here.




ElementValue
Catalog62406
NameSTRIX-2
Epoch Orbit667
Epoch Day35.11127096
Epoch Year2025
RAAN353.5617
Inclination97.5702
Eccentricity0.0018603
Argument of Perigee214.7932
Mean Anonmoly145.2077
Mean Motion15.00732749
Decay Rate9.626E-05
L11 62406U 24248A 25035.11127096 .00009626 00000+0 76071-3 0 9996
L22 62406 97.5702 353.5617 0018603 214.7932 145.2077 15.00732749 6679



Live tracking and technical data element details for STRIX-2 (NORAD 62406). STRIX-2 can be tracked NOW for your location showing map with azimuth and elevation plus other details from your city location.







IsCatalogInMostPopularTable: catalog: 62406, numindb: 13
Update: records affected: 1



GetName: 62406 STRIX-2

Hit Count: updated at: Mon, 19 May 2025 01:52:34 GMT